FENGYUN 1C DEB, 30237

Orbit data source: Space-Track

FENGYUN 1C DEB, 30237 is space debris in SSO originally from a launch on Mon, 10 May 1999 UTC launched from the Taiyaun Space Center, China (TSC). Fengyun 1C debris stems from the Chinese weather satellite Fengyun-1C, which was intentionally destroyed by a Chinese anti-satellite missile in 2007. This event dramatically increased the amount of space debris, with thousands of trackable fragments posing hazards to satellites and human spaceflight. The Fengyun 1C debris cloud has become a focal point in discussions about space sustainability and the need for international regulations to prevent the creation of new debris.

Loading next visibility...
Identifier
30237, 1999-025WW
Orbit
SSO
Country
Flag of CNCN / PRC
Related business
Manufacturer
Unknown
Mission
Spacecraft
Bus & Motor
Unknown
Mass
Unknown
Launch date (UTC)
1999-05-10 (27 years ago)
Launch vehicle
Unknown
Launch site
Taiyaun Space Center, China (TSC)
Object type
Payload
Rocket body
Debris
Shape & HBR
Unknown shape, 0.1 m
Radar Cross Section
Medium (>0.1 m² and <1 m²)

Expand to show TLE details & history
Last TLE update: 9 hours ago

TLE from 9 hours ago
0 FENGYUN 1C DEB
1 30237U 99025WW  26255.29948689  .00003418  00000-0  10055-2 0  9994
2 30237  98.8339  12.7346 0014376 209.5386 180.2582 14.44321776 16400
Epoch: 2026-09-12T07:11Z
TLE epoch observation values (Epoch: 2026-09-12T07:11:15.667Z)
Latitude
29.4577°
Longitude
-91.39999°
Altitude
758.18 km
Speed
7.473 km/s
True Right ascension
00h 30m 54s
True Declination
29° 18' 38"
Sunlit
Object was in full shadow at epoch
Visualization orbit readout
Latitude
Unknown
Longitude
Unknown
Altitude
Unknown
Speed
Unknown
Apparent Right ascension
Unknown
Apparent Declination
Unknown
Sunlit
N/A
Visualization observer readout
Local Sidereal Time
08:48:02
Azimuth
Unknown
Elevation
Unknown
Doppler factor
Unknown
Orbital elements
Apogee altitude
751.622 km
Perigee altitude
731.152 km
Semi-major axis
7,119.524 km
Eccentricity
0.00144
Inclination
98.8339°
RAAN
12.7346°
Arg. of periapsis
209.5386°
True anomaly
180.25746°
Mean anomaly
180.2582°
Eccentric anomaly
180.25783°
Mean motion
3.61299 °/min
Orbital period
99.64 mins
BSTAR
0.0010055
Loading maneuver chart data...
Computing Atmospheric mass density...

Documentation

Showing up to 5 results
|